aerodrome LA FERTE GAUCHER, LFFG, pilots, aviation, flying | pilotspace.eu

LA FERTE GAUCHER

aerodrome LA FERTE GAUCHER

ICAO/ID: LFFG
France
web: Réservé au parachutisme et aux avions de servitude
show on the map

LFPM 021700Z AUTO 02004KT 340V070 9999 FEW040 22/13 Q1020

TAF LFPG 021100Z 0212/0318 04005KT 9999 BKN035 TX25/0315Z TN13/0305Z

general information

altitude: 538 ft
latitude: 48 45 21 N
longitude: 003 16 36 E

traffic information

RWY: 05/23: 3,609 ft (1,100 m) — surface unknown
report copyright

Online pilot logbook: free for each registered member! http://www.pilotlogbook.eu


last flights

RECENTLY ADDED

The Arrow

The Arrow

15/08/2014 (22x)

lukin

STYLUS X3

STYLUS X3 "Beauty"

01/08/2014 (5x)

Jenki

Poprad

Poprad

31/07/2014 (21x)

Jenki

Let.příručka ALTO

09/03/2014 (14x)

Roman Máca

Let.příručka ALTO

09/03/2014 (4x)

Roman Máca

ULRBK

08/02/2014 (16x)

northwolf

L-13 AC - akrobacie

L-13 AC - akrobacie

05/02/2014 (17x)

Davidlet

inzerát

inzerát

28/09/2013 (22x)

béza48